Regional Weather Roundup
Issued by NWS

Home | Current Version | Previous Version | Graphics & Text | Print | Product List | Glossary On
Versions: 1 2 3 4 5 6 7 8 9 10 11 12 13 14 15 16 17 18 19 20 21 22 23 24 25 26 27 28 29 30 31 32 33 34 35 36 37 38 39 40 41 42 43 44 45 46 47 48 49 50
000
ASUS45 KABQ 151901
RWRNM
WEATHER ROUNDUP FOR NEW MEXICO
NATIONAL WEATHER SERVICE ALBUQUERQUE NM
100 PM MDT TUE APR 15 2014

NOTE: "FAIR" MEANS FEW OR NO CLOUDS BELOW 12,000 FEET AGL WITH NO
       SIGNIFICANT WEATHER OR OBSTRUCTIONS TO VISION.

      THIS PRODUCT IS RELEASED AS TWO VERSIONS.  ONE VERSION NEAR
      THE TOP OF THE HOUR CONTAINING PRELIMINARY DATA FROM ALBUQUERQUE
      AND OTHER STATIONS.  A FINAL VERSION WITH ADDITIONAL DATA IS
      ISSUED ABOUT 10 MINUTES AFTER THE HOUR.

NMZ501-503-504-510>518-152000-
NORTHWEST PLATEAU/NORTHCENTRAL MOUNTAINS

CITY           SKY/WX    TMP DP  RH WIND       PRES   REMARKS
FARMINGTON     SUNNY     59   9  13 SW5       30.09F
SANTA FE       SUNNY     55   8  15 SW9       30.11F
TAOS           SUNNY     52  12  20 W10G18    30.13F

$$
NMZ402-403-502-505>509-152000-
WESTCENTRAL MOUNTAINS/SOUTHWEST MOUNTAINS

CITY           SKY/WX    TMP DP  RH WIND       PRES   REMARKS
GALLUP         MOSUNNY   61  -1   8 VRB3      30.11F
SILVER CITY    SUNNY     57  12  17 SE16      30.19F

$$
NMZ407-409-411-412-152000-
SOUTHERN DESERTS

CITY           SKY/WX    TMP DP  RH WIND       PRES   REMARKS
DEMING         SUNNY     62  11  13 VRB3G17   30.14F
HOLLOMAN AFB   SUNNY     60  11  14 SE12G17   30.17F
T OR C         SUNNY     60  15  17 S17G26    30.15F

$$
NMZ519>523-152000-
CENTRAL VALLEYS/CENTRAL HIGHLANDS

CITY           SKY/WX    TMP DP  RH WIND       PRES   REMARKS
ALBUQUERQUE    MOSUNNY   57  12  17 S7        30.13F
DOUBLE EAGLE   SUNNY     57  10  15 S9        30.13F
CLINES CORNERS SUNNY     56  10  16 W22G30    30.10F
BELEN          FAIR      60  15  17 S5        30.12F
SOCORRO        NOT AVBL

$$
NMZ524>526-539-540-152000-
SOUTHCENTRAL MOUNTAINS

CITY           SKY/WX    TMP DP  RH WIND       PRES   REMARKS
RUIDOSO        NOT AVBL

$$
NMZ527>531-152000-
NORTHEAST HIGHLANDS/NORTHEAST PLAINS

CITY           SKY/WX    TMP DP  RH WIND       PRES   REMARKS
LAS VEGAS      SUNNY     58  13  17 S8        30.04F
RATON          SUNNY     55  20  25 SW12G17   30.00F
CLAYTON        SUNNY     55  22  27 S23       30.01F

$$
NMZ532>537-152000-
EASTCENTRAL PLAINS

CITY           SKY/WX    TMP DP  RH WIND       PRES   REMARKS
TUCUMCARI      SUNNY     63  17  17 SW25G33   30.04F
CANNON AFB     SUNNY     59  12  15 SW25G36   30.10F
CLOVIS AIRPORT SUNNY     59  14  17 S23G33    30.14F

$$
NMZ028-029-538-152000-
SOUTHEAST PLAINS

CITY           SKY/WX    TMP DP  RH WIND       PRES   REMARKS
ROSWELL        SUNNY     62   9  12 S23G35    30.14F
CARLSBAD       SUNNY     63   0   8 S21G30    30.17F
HOBBS          SUNNY     55   3  12 S21       30.20F


$$



USA.gov is the U.S. government's official web portal to all federal, state and local government web resources and services.